When you browse on this site, cookies collect data to enhance your experience and personalize the content and advertising you see.
Visit our Privacy Policy to learn more. By continuing to use the site, you agree to this use of cookies and data.

Stündliche Wetter Maracay

Heute, 3 Juli, Freitag

Zeit Temperatur Niederschläge Wind Luftdruck Luftfeuchtigkeit
00:00 +24°C° 0.1 mm 1 m/S 711 mmHg 92%
01:00 +23°C° 0.1 mm 1 m/S 710 mmHg 92%
02:00 +23°C° 0 mm 1 m/S 710 mmHg 92%
03:00 +23°C° 0 mm 1 m/S 710 mmHg 91%
04:00 +23°C° 0 mm 1 m/S 710 mmHg 90%
05:00 +24°C° 0 mm 1 m/S 711 mmHg 88%
06:00 +25°C° 0 mm 1 m/S 711 mmHg 86%
07:00 +24°C° 0 mm 0 m/S 711 mmHg 83%
08:00 +27°C° 0.1 mm 1 m/S 712 mmHg 77%
09:00 +28°C° 0.1 mm 2 m/S 712 mmHg 71%
10:00 +30°C° 0.1 mm 3 m/S 712 mmHg 65%
11:00 +30°C° 0.5 mm 2 m/S 712 mmHg 66%
12:00 +30°C° 0.5 mm 2 m/S 711 mmHg 66%
13:00 +31°C° 0.5 mm 2 m/S 711 mmHg 67%
14:00 +30°C° 0.5 mm 2 m/S 710 mmHg 70%
15:00 +30°C° 0.5 mm 2 m/S 710 mmHg 73%
16:00 +29°C° 0.5 mm 2 m/S 709 mmHg 76%
17:00 +28°C° 0.3 mm 2 m/S 710 mmHg 81%
18:00 +26°C° 0.3 mm 2 m/S 710 mmHg 86%
19:00 +25°C° 0.3 mm 2 m/S 710 mmHg 91%
20:00 +25°C° 0 mm 2 m/S 711 mmHg 91%
21:00 +24°C° 0 mm 1 m/S 711 mmHg 92%
22:00 +24°C° 0 mm 1 m/S 712 mmHg 93%
23:00 +24°C° 0 mm 1 m/S 711 mmHg 93%

Morgen, 4 Juli, Samstag

Zeit Temperatur Niederschläge Wind Luftdruck Luftfeuchtigkeit
00:00 +24°C° 0 mm 1 m/S 711 mmHg 93%
01:00 +23°C° 0 mm 1 m/S 711 mmHg 93%
02:00 +23°C° 0 mm 1 m/S 711 mmHg 93%
03:00 +23°C° 0 mm 1 m/S 711 mmHg 92%
04:00 +23°C° 0 mm 1 m/S 711 mmHg 92%
05:00 +22°C° 0 mm 0 m/S 711 mmHg 90%
06:00 +22°C° 0 mm 0 m/S 711 mmHg 88%
07:00 +23°C° 0 mm 0 m/S 711 mmHg 86%
08:00 +27°C° 0 mm 1 m/S 712 mmHg 77%
09:00 +28°C° 0 mm 1 m/S 712 mmHg 68%
10:00 +30°C° 0 mm 1 m/S 712 mmHg 60%
11:00 +30°C° 0 mm 2 m/S 712 mmHg 58%
12:00 +31°C° 0 mm 2 m/S 711 mmHg 56%
13:00 +31°C° 0 mm 2 m/S 711 mmHg 53%
14:00 +31°C° 0 mm 2 m/S 711 mmHg 56%
15:00 +30°C° 0 mm 2 m/S 710 mmHg 60%
16:00 +30°C° 0 mm 1 m/S 710 mmHg 63%
17:00 +28°C° 0 mm 1 m/S 710 mmHg 70%
18:00 +26°C° 0 mm 1 m/S 710 mmHg 78%
19:00 +25°C° 0 mm 2 m/S 710 mmHg 85%
20:00 +24°C° 0 mm 1 m/S 711 mmHg 87%
21:00 +24°C° 0 mm 1 m/S 711 mmHg 88%
22:00 +23°C° 0 mm 1 m/S 712 mmHg 90%
23:00 +23°C° 0 mm 1 m/S 711 mmHg 90%

übermorgen, 5 Juli, Sonntag

Zeit Temperatur Niederschläge Wind Luftdruck Luftfeuchtigkeit
00:00 +23°C° 0 mm 1 m/S 711 mmHg 90%
01:00 +23°C° 0 mm 1 m/S 710 mmHg 90%
02:00 +22°C° 0 mm 1 m/S 710 mmHg 90%
03:00 +22°C° 0 mm 1 m/S 710 mmHg 90%
04:00 +22°C° 0 mm 1 m/S 710 mmHg 89%
05:00 +21°C° 0 mm 0 m/S 711 mmHg 86%
06:00 +22°C° 0 mm 0 m/S 711 mmHg 83%
07:00 +23°C° 0 mm 0 m/S 712 mmHg 79%
08:00 +26°C° 0 mm 1 m/S 712 mmHg 72%
09:00 +28°C° 0 mm 1 m/S 712 mmHg 65%
10:00 +29°C° 0 mm 1 m/S 713 mmHg 58%
11:00 +30°C° 0 mm 1 m/S 712 mmHg 56%
12:00 +30°C° 0 mm 1 m/S 712 mmHg 54%
13:00 +31°C° 0 mm 2 m/S 711 mmHg 52%
14:00 +30°C° 0.1 mm 2 m/S 711 mmHg 56%
15:00 +30°C° 0.1 mm 2 m/S 710 mmHg 60%
16:00 +29°C° 0.1 mm 2 m/S 709 mmHg 63%
17:00 +28°C° 0 mm 2 m/S 710 mmHg 71%
18:00 +26°C° 0 mm 2 m/S 710 mmHg 79%
19:00 +24°C° 0 mm 2 m/S 710 mmHg 87%
20:00 +24°C° 0 mm 2 m/S 711 mmHg 89%
21:00 +24°C° 0 mm 1 m/S 711 mmHg 90%
22:00 +23°C° 0 mm 1 m/S 711 mmHg 91%
23:00 +23°C° 0 mm 1 m/S 711 mmHg 91%

6 Juli, Montag

Zeit Temperatur Niederschläge Wind Luftdruck Luftfeuchtigkeit
00:00 +23°C° 0 mm 1 m/S 711 mmHg 91%
01:00 +21°C° 0 mm 0 m/S 710 mmHg 91%
02:00 +21°C° 0 mm 0 m/S 710 mmHg 91%
03:00 +21°C° 0 mm 0 m/S 710 mmHg 90%
04:00 +21°C° 0 mm 0 m/S 710 mmHg 90%
05:00 +22°C° 0 mm 0 m/S 711 mmHg 86%
06:00 +23°C° 0 mm 0 m/S 711 mmHg 83%
07:00 +24°C° 0 mm 0 m/S 712 mmHg 79%
08:00 +27°C° 0 mm 1 m/S 712 mmHg 74%
09:00 +28°C° 0 mm 1 m/S 712 mmHg 70%
10:00 +29°C° 0 mm 2 m/S 713 mmHg 65%
11:00 +30°C° 0.4 mm 2 m/S 712 mmHg 65%
12:00 +30°C° 0.4 mm 2 m/S 712 mmHg 66%
13:00 +30°C° 0.4 mm 2 m/S 711 mmHg 66%
14:00 +29°C° 1.1 mm 2 m/S 711 mmHg 71%
15:00 +29°C° 1.1 mm 1 m/S 710 mmHg 75%
16:00 +28°C° 1.1 mm 1 m/S 710 mmHg 80%
17:00 +27°C° 0.5 mm 1 m/S 710 mmHg 83%
18:00 +26°C° 0.5 mm 1 m/S 710 mmHg 87%
19:00 +25°C° 0.5 mm 1 m/S 711 mmHg 90%
20:00 +25°C° 0.3 mm 1 m/S 711 mmHg 91%
21:00 +25°C° 0.3 mm 1 m/S 711 mmHg 91%
22:00 +24°C° 0.3 mm 1 m/S 712 mmHg 92%
23:00 +24°C° 0.5 mm 1 m/S 711 mmHg 92%

7 Juli, Dienstag

Zeit Temperatur Niederschläge Wind Luftdruck Luftfeuchtigkeit
00:00 +24°C° 0.5 mm 1 m/S 711 mmHg 92%
01:00 +24°C° 0.5 mm 1 m/S 710 mmHg 92%
02:00 +24°C° 0.4 mm 1 m/S 710 mmHg 91%
03:00 +22°C° 0.4 mm 0 m/S 710 mmHg 91%
04:00 +21°C° 0.4 mm 0 m/S 710 mmHg 90%
05:00 +22°C° 0.2 mm 0 m/S 711 mmHg 89%
06:00 +23°C° 0.2 mm 0 m/S 711 mmHg 87%
07:00 +24°C° 0.2 mm 0 m/S 712 mmHg 85%
08:00 +26°C° 0.9 mm 1 m/S 712 mmHg 83%
09:00 +27°C° 0.9 mm 1 m/S 712 mmHg 80%
10:00 +28°C° 0.9 mm 2 m/S 712 mmHg 78%
11:00 +28°C° 1.5 mm 2 m/S 712 mmHg 77%
12:00 +28°C° 1.5 mm 2 m/S 711 mmHg 77%
13:00 +29°C° 1.5 mm 2 m/S 711 mmHg 77%
14:00 +28°C° 1.5 mm 2 m/S 711 mmHg 77%
15:00 +28°C° 1.5 mm 2 m/S 710 mmHg 78%
16:00 +28°C° 1.5 mm 1 m/S 710 mmHg 78%
17:00 +27°C° 0.3 mm 1 m/S 710 mmHg 81%
18:00 +26°C° 0.3 mm 1 m/S 710 mmHg 84%
19:00 +25°C° 0.3 mm 1 m/S 711 mmHg 88%
20:00 +24°C° 0.2 mm 1 m/S 711 mmHg 88%
21:00 +24°C° 0.2 mm 1 m/S 711 mmHg 88%
22:00 +24°C° 0.2 mm 1 m/S 711 mmHg 88%
23:00 +24°C° 0 mm 1 m/S 711 mmHg 88%

8 Juli, Mittwoch

Zeit Temperatur Niederschläge Wind Luftdruck Luftfeuchtigkeit
00:00 +23°C° 0 mm 1 m/S 711 mmHg 87%
01:00 +23°C° 0 mm 1 m/S 710 mmHg 87%
02:00 +23°C° 0 mm 1 m/S 710 mmHg 86%
03:00 +23°C° 0 mm 1 m/S 710 mmHg 84%
04:00 +22°C° 0 mm 1 m/S 710 mmHg 83%
05:00 +23°C° 0 mm 1 m/S 711 mmHg 81%
06:00 +24°C° 0 mm 1 m/S 711 mmHg 79%
07:00 +25°C° 0 mm 1 m/S 711 mmHg 77%
08:00 +27°C° 0 mm 1 m/S 712 mmHg 71%
09:00 +28°C° 0 mm 1 m/S 712 mmHg 64%
10:00 +30°C° 0 mm 1 m/S 712 mmHg 58%
11:00 +30°C° 0 mm 2 m/S 712 mmHg 57%
12:00 +31°C° 0 mm 2 m/S 711 mmHg 56%
13:00 +31°C° 0 mm 2 m/S 711 mmHg 55%
14:00 +30°C° 0.2 mm 2 m/S 711 mmHg 59%
15:00 +30°C° 0.2 mm 1 m/S 710 mmHg 64%
16:00 +29°C° 0.2 mm 1 m/S 710 mmHg 68%
17:00 +28°C° 0.1 mm 1 m/S 710 mmHg 73%
18:00 +26°C° 0.1 mm 1 m/S 710 mmHg 78%
19:00 +25°C° 0.1 mm 1 m/S 710 mmHg 84%
20:00 +24°C° 0 mm 1 m/S 711 mmHg 85%
21:00 +24°C° 0 mm 1 m/S 711 mmHg 86%
22:00 +24°C° 0 mm 1 m/S 712 mmHg 87%
23:00 +23°C° 0 mm 1 m/S 711 mmHg 88%
Mehr zeigen